Left ArrowRight Arrow

46.92218, -95.05863

Hourly Observations for April 11, 2023

Temp ( °F °C ) Dew Point ( °F °C ) Humidity (%) Winds ( mph kmh ) Pressure ( in mb ) Visibility ( mi km ) Precip ( " mm )
12:53 am 00:53 Clear 44 6.7 36 2.2 73 73 NW 6 9 30.07 1018 10 16 0.00 0.00
1:53 am 01:53 Clear 41 5 34 1.1 76 76 WSW 5 7 30.06 1018 10 16 0.00 0.00
2:53 am 02:53 Clear 43 6.1 35 1.7 73 73 SW 3 6 30.05 1018 10 16 0.00 0.00
3:53 am 03:53 Clear 43 6.1 34 1.1 70 70 SSW 5 7 30.04 1017 10 16 0.00 0.00
4:53 am 04:53 Clear 45 7.2 33 0.6 63 63 SSW 5 7 30.02 1017 10 16 0.00 0.00
5:53 am 05:53 Clear 43 6.1 32 0 65 65 S 6 9 30.00 1016 10 16 0.00 0.00
6:53 am 06:53 Sunny 44 6.7 32 0 62 62 S 5 7 30.00 1016 10 16 0.00 0.00
7:53 am 07:53 Sunny 40 4.4 32 0 73 73 S 7 11 29.99 1016 10 16 0.00 0.00
8:53 am 08:53 Sunny 48 8.9 35 1.7 61 61 SW 8 13 29.97 1015 10 16 0.00 0.00
9:53 am 09:53 Sunny 48 8.9 37 2.8 66 66 SW 10 17 29.96 1014 10 16 0.00 0.00
10:53 am 10:53 Sunny 49 9.4 38 3.3 66 66 WSW 10 17 29.95 1014 10 16 0.00 0.00
11:53 am 11:53 Sunny 49 9.4 38 3.3 66 66 SSW 9 15 29.93 1014 10 16 0.00 0.00
12:53 pm 12:53 Sunny 50 10 38 3.3 63 63 SSW 13 20 29.91 1013 10 16 0.00 0.00
1:53 pm 13:53 Sunny 52 11.1 38 3.3 59 59 SSW 15 24 29.90 1013 10 16 0.00 0.00
2:53 pm 14:53 Sunny 53 11.7 37 2.8 54 54 SSW 10 17 29.87 1012 10 16 0.00 0.00
3:53 pm 15:53 Sunny 55 12.8 39 3.9 55 55 S 10 17 29.84 1011 10 16 0.00 0.00
4:53 pm 16:53 Sunny 58 14.4 40 4.4 51 51 S 13 20 29.80 1009 10 16 0.00 0.00
5:53 pm 17:53 Sunny 57 13.9 41 5 55 55 S 13 20 29.77 1008 10 16 0.00 0.00
6:53 pm 18:53 Sunny 57 13.9 43 6.1 59 59 S 12 19 29.75 1007 10 16 0.00 0.00
7:53 pm 19:53 Sunny 55 12.8 43 6.1 64 64 S 13 20 29.71 1006 10 16 0.00 0.00
8:53 pm 20:53 Clear 53 11.7 42 5.6 66 66 S 15 24 29.67 1005 10 16 0.00 0.00
9:53 pm 21:53 Clear 52 11.1 40 4.4 63 63 S 13 20 29.66 1004 10 16 0.00 0.00
10:53 pm 22:53 Clear 48 8.9 38 3.3 68 68 SSW 8 13 29.66 1004 10 16 0.00 0.00
11:53 pm 23:53 Clear 46 7.8 37 2.8 71 71 S 7 11 29.65 1004 10 16 0.00 0.00

Powered by Vaisala Xweather